Total_Precipitation_Accumulation
0.04 0.10 0.29 0.34 0.37 0.35 0.32 0.29 0.27 0.25 0.26 0.28 0.30 0.31 0.32 0.31 0.30 0.26 0.26 0.25 0.26 0.30 0.37 0.43 0.43 0.39 0.35 0.32 0.29 0.22 0.17 0.13 0.13 0.12 0.11 0.13 0.14 0.14 0.13 0.14 0.16 0.19 0.24
0.03 0.10 0.28 0.34 0.39 0.36 0.36 0.33 0.30 0.26 0.27 0.33 0.38 0.38 0.34 0.31 0.30 0.27 0.24 0.23 0.25 0.29 0.38 0.43 0.37 0.29 0.21 0.16 0.13 0.12 0.11 0.08 0.07 0.03 0.02 0.03 0.06 0.09 0.10 0.09 0.11 0.15 0.17
0.03 0.11 0.28 0.37 0.39 0.36 0.36 0.32 0.29 0.27 0.30 0.38 0.45 0.43 0.36 0.29 0.27 0.27 0.23 0.23 0.25 0.29 0.32 0.34 0.27 0.21 0.16 0.14 0.10 0.07 0.05 0.04 0.03 0.02 0.02 0.03 0.05 0.07 0.08 0.08 0.10 0.12 0.15
0.07 0.13 0.26 0.40 0.41 0.38 0.37 0.36 0.34 0.34 0.34 0.38 0.43 0.44 0.40 0.35 0.34 0.31 0.27 0.23 0.23 0.24 0.23 0.25 0.21 0.16 0.12 0.10 0.08 0.06 0.04 0.04 0.02 0.02 0.04 0.05 0.05 0.08 0.10 0.11 0.13 0.15 0.17
0.14 0.19 0.32 0.42 0.46 0.42 0.40 0.36 0.37 0.39 0.39 0.42 0.44 0.44 0.38 0.36 0.37 0.34 0.30 0.24 0.21 0.21 0.20 0.20 0.17 0.13 0.09 0.07 0.07 0.05 0.05 0.04 0.02 0.02 0.03 0.05 0.06 0.11 0.15 0.15 0.18 0.19 0.18
0.22 0.31 0.45 0.50 0.51 0.50 0.46 0.41 0.39 0.40 0.45 0.47 0.48 0.46 0.39 0.39 0.41 0.37 0.31 0.21 0.18 0.18 0.19 0.19 0.17 0.14 0.10 0.07 0.06 0.05 0.05 0.05 0.02 0.02 0.03 0.05 0.07 0.15 0.18 0.18 0.21 0.22 0.23
0.31 0.44 0.59 0.65 0.64 0.59 0.55 0.55 0.51 0.49 0.52 0.56 0.56 0.53 0.46 0.44 0.44 0.38 0.31 0.21 0.18 0.17 0.19 0.18 0.17 0.15 0.13 0.11 0.08 0.07 0.06 0.04 0.02 0.02 0.03 0.04 0.08 0.17 0.18 0.21 0.24 0.25 0.27
0.59 0.68 0.80 0.83 0.79 0.69 0.60 0.58 0.56 0.57 0.60 0.61 0.59 0.59 0.55 0.49 0.47 0.42 0.33 0.24 0.21 0.21 0.23 0.20 0.18 0.16 0.14 0.13 0.11 0.08 0.06 0.03 0.02 0.02 0.03 0.04 0.09 0.19 0.19 0.19 0.21 0.23 0.27
1.07 1.11 1.07 1.00 0.91 0.84 0.70 0.61 0.58 0.57 0.61 0.63 0.63 0.63 0.57 0.55 0.52 0.45 0.36 0.29 0.26 0.27 0.27 0.23 0.19 0.17 0.16 0.14 0.12 0.09 0.06 0.04 0.02 0.02 0.02 0.04 0.09 0.21 0.23 0.23 0.26 0.27 0.27
1.50 1.53 1.44 1.28 1.13 1.02 0.85 0.69 0.62 0.59 0.59 0.60 0.60 0.56 0.48 0.47 0.47 0.42 0.31 0.29 0.29 0.29 0.27 0.22 0.19 0.19 0.16 0.14 0.13 0.10 0.07 0.05 0.03 0.03 0.04 0.06 0.15 0.27 0.30 0.30 0.32 0.31 0.28
1.84 1.81 1.80 1.61 1.39 1.23 1.01 0.73 0.67 0.64 0.62 0.58 0.57 0.48 0.46 0.47 0.45 0.37 0.26 0.21 0.23 0.26 0.26 0.24 0.21 0.20 0.17 0.14 0.13 0.12 0.09 0.06 0.04 0.03 0.05 0.10 0.19 0.27 0.28 0.28 0.28 0.26 0.25
2.01 1.98 1.96 1.86 1.67 1.50 1.24 0.93 0.81 0.70 0.67 0.59 0.51 0.49 0.44 0.45 0.48 0.40 0.33 0.26 0.23 0.24 0.24 0.26 0.24 0.23 0.20 0.16 0.14 0.12 0.11 0.09 0.08 0.07 0.06 0.08 0.15 0.23 0.25 0.24 0.23 0.23 0.22
2.20 2.18 2.13 2.10 1.92 1.70 1.39 1.05 0.88 0.76 0.73 0.66 0.55 0.50 0.50 0.51 0.51 0.53 0.51 0.42 0.36 0.27 0.28 0.28 0.29 0.23 0.20 0.19 0.18 0.14 0.12 0.12 0.11 0.09 0.07 0.07 0.12 0.23 0.29 0.29 0.25 0.25 0.25
2.36 2.26 2.22 2.20 2.07 1.87 1.56 1.24 0.98 0.81 0.75 0.73 0.65 0.59 0.62 0.58 0.53 0.51 0.50 0.46 0.45 0.36 0.33 0.31 0.26 0.23 0.20 0.19 0.20 0.20 0.19 0.18 0.16 0.15 0.13 0.09 0.10 0.17 0.25 0.30 0.33 0.34 0.33
2.32 2.31 2.29 2.16 2.04 1.93 1.77 1.48 1.13 0.90 0.80 0.80 0.79 0.72 0.70 0.66 0.60 0.60 0.54 0.49 0.43 0.40 0.38 0.34 0.29 0.27 0.25 0.23 0.22 0.22 0.22 0.20 0.19 0.20 0.18 0.13 0.10 0.12 0.19 0.27 0.36 0.43 0.45
2.06 2.23 2.28 2.18 2.00 1.84 1.76 1.67 1.40 1.07 0.89 0.87 0.86 0.82 0.77 0.75 0.70 0.66 0.62 0.59 0.50 0.45 0.41 0.41 0.37 0.37 0.33 0.32 0.26 0.24 0.23 0.22 0.19 0.18 0.18 0.17 0.15 0.13 0.14 0.23 0.34 0.45 0.56
1.81 2.02 2.19 2.28 2.15 1.90 1.74 1.69 1.60 1.40 1.11 0.92 0.87 0.89 0.85 0.78 0.73 0.71 0.69 0.62 0.56 0.54 0.54 0.55 0.53 0.51 0.44 0.40 0.35 0.33 0.32 0.30 0.26 0.23 0.21 0.19 0.20 0.19 0.18 0.21 0.30 0.42 0.58
1.67 1.84 2.00 2.06 2.14 2.01 1.81 1.72 1.65 1.54 1.38 1.18 0.99 0.90 0.88 0.85 0.84 0.82 0.80 0.75 0.71 0.70 0.68 0.66 0.63 0.61 0.52 0.46 0.43 0.42 0.40 0.38 0.35 0.33 0.31 0.28 0.26 0.22 0.21 0.23 0.29 0.39 0.52
1.54 1.72 1.96 1.90 1.92 2.02 2.05 1.94 1.76 1.63 1.47 1.34 1.19 1.00 0.94 0.97 0.97 0.93 0.85 0.85 0.88 0.84 0.79 0.77 0.70 0.64 0.56 0.52 0.52 0.49 0.45 0.43 0.39 0.38 0.39 0.39 0.38 0.35 0.31 0.31 0.28 0.28 0.35
1.53 1.64 1.87 1.87 1.90 2.03 2.21 2.18 2.05 1.82 1.59 1.47 1.30 1.13 1.02 1.01 1.06 1.01 0.93 0.93 0.95 0.90 0.79 0.77 0.74 0.71 0.63 0.63 0.62 0.55 0.51 0.48 0.45 0.42 0.41 0.42 0.42 0.41 0.39 0.37 0.34 0.32 0.32
1.64 1.64 1.75 1.86 1.92 1.96 2.02 1.95 1.85 1.78 1.69 1.61 1.49 1.38 1.23 1.16 1.19 1.19 1.10 1.05 1.06 0.99 0.90 0.91 0.95 0.89 0.80 0.81 0.76 0.59 0.50 0.48 0.46 0.44 0.42 0.41 0.38 0.37 0.35 0.34 0.34 0.33 0.33
1.60 1.64 1.77 1.86 1.88 1.84 1.89 1.99 1.94 1.99 1.95 1.91 1.85 1.70 1.54 1.41 1.38 1.36 1.34 1.32 1.26 1.18 1.10 1.06 1.07 1.02 0.95 0.97 0.94 0.86 0.63 0.49 0.42 0.40 0.41 0.40 0.40 0.39 0.36 0.35 0.35 0.34 0.32
1.46 1.69 1.79 1.84 1.85 1.83 2.03 2.39 2.33 2.23 2.14 2.07 2.00 1.92 1.78 1.67 1.61 1.50 1.45 1.50 1.46 1.35 1.25 1.20 1.17 1.15 1.15 1.14 1.09 1.11 0.87 0.61 0.48 0.42 0.39 0.36 0.39 0.44 0.45 0.44 0.40 0.36 0.32
1.26 1.54 1.82 1.91 1.96 2.03 2.19 2.41 2.45 2.20 2.02 1.95 1.97 1.98 1.95 1.77 1.70 1.66 1.61 1.58 1.59 1.55 1.40 1.35 1.34 1.29 1.26 1.22 1.18 1.06 0.97 0.81 0.73 0.56 0.43 0.39 0.38 0.38 0.42 0.44 0.43 0.41 0.41
1.12 1.33 1.59 1.84 1.92 2.08 2.19 2.28 2.44 2.24 1.95 1.94 1.97 1.94 1.94 1.87 1.70 1.64 1.62 1.55 1.49 1.48 1.48 1.45 1.41 1.38 1.28 1.18 1.12 1.06 1.00 0.86 0.73 0.69 0.53 0.41 0.40 0.36 0.36 0.40 0.43 0.44 0.45
0.97 1.11 1.28 1.49 1.61 1.71 1.86 2.03 2.20 2.23 2.11 1.96 1.87 1.82 1.79 1.79 1.75 1.68 1.64 1.55 1.44 1.37 1.34 1.35 1.37 1.37 1.34 1.26 1.18 1.13 1.07 0.99 0.85 0.81 0.75 0.58 0.50 0.43 0.40 0.41 0.43 0.45 0.47